User: anonymous   Login
Location: Vancouver
(49.2500°N, 123.1330°W)
Time: 04:09:42
(UTC-08:00)
Language:

ERS-2 - Orbit

View from above orbital plane
View from above orbital plane
View from above satellite
View from above satellite

Ground track
Ground track

The orbit data is extracted from the following two-line orbital elements,

1 23560U 95021A   14326.17442987  .00011869  00000-0  69096-3 0  1700
2 23560 098.5495 185.0919 0002882 240.2954 119.7976 15.12216793 33123
Epoch (UTC): 22 November 2014 04:11:10
Eccentricity: 0.0002882
inclination: 98.5495°
perigee height: 527 km
apogee height: 531 km
right ascension of ascending node: 185.0919°
argument of perigee: 240.2954°
revolutions per day: 15.12216793
mean anomaly at epoch: 119.7976°
orbit number at epoch: 3312

The dashed part of the orbit path shows where the satellite is in the earth's shadow,  

DLR